Hurricane Symbol View the latest observations near East Pacific Tropical Storm Bud.

Station 44030 - Buoy B01 - Western Maine Shelf Image indicating link to RSS feed of recent meteorological observations for station 44030


Conditions at 44030 as of
(8:04 pm EDT on 07/24/2024)
0004 GMT on 07/25/2024:
     

Click on the graph icon in the table below to see a time series plot of the last five days of that observation.

5-day plot - Wind Direction Wind Direction (WDIR):ESE ( 110 deg true )
5-day plot - Wind Speed Wind Speed (WSPD): 3.9 kts
5-day plot - Wind Gust Wind Gust (GST): 3.9 kts
5-day plot - Wave Height Wave Height (WVHT): 2.6 ft
5-day plot - Dominant Wave Period Dominant Wave Period (DPD): 5 sec
5-day plot - Atmospheric Pressure Atmospheric Pressure (PRES):30.14 in
5-day plot - Air Temperature Air Temperature (ATMP): 64.0 °F
5-day plot - Water Temperature Water Temperature (WTMP): 62.4 °F
5-day plot - Salinity Salinity (SAL): 30.60 psu
5-day plot - Wind Speed at 10 Meters Wind Speed at 10 meters (WSPD10M): 3.9 kts
5-day plot - Wind Speed at 20 Meters Wind Speed at 20 meters (WSPD20M): 3.9 kts
5-day plot -  Wind Speed, Wind Gust and Atmospheric Pressure Combined plot of Wind Speed, Gust, and Air Pressure
Previous observations
TIME
(EDT)
5-day plot - Wind Direction
WDIR
 
5-day plot - Wind Speed
WSPD
kts
5-day plot - Wind Gust
GST
kts
5-day plot - Wave Height
WVHT
ft
5-day plot - Dominant Wave Period
DPD
sec
5-day plot - Average Wave Period
APD
sec
5-day plot - Mean Wave Direction
MWD
 
5-day plot - Atmospheric Pressure
PRES
in
5-day plot - Pressure Tendency
PTDY
in
5-day plot - Air Temperature
ATMP
°F
5-day plot - Water Temperature
WTMP
°F
5-day plot - Dew Point
DEWP
°F
5-day plot - Salinity
SAL
psu
5-day plot - Visibility
VIS
nmi
5-day plot - Tide (above MLLW)
TIDE
ft
2024-07-24 07:04 pmESE 3.9 5.8 2.6 5--30.14- 64.0 62.4- 30.60--
2024-07-24 06:04 pmESE 3.9 3.9 3.0 5--30.15- 64.2 62.6- 30.70--
2024-07-24 05:04 pmESE 1.9 3.9 3.0 5--30.16- 64.4 61.9- 30.70--
2024-07-24 04:04 pmESE 3.9 5.8 2.6 8--30.16- 64.4 61.5- 30.70--
2024-07-24 03:04 pmESE 3.9 5.8 3.0 8--30.18- 64.8 61.9- 30.70--
2024-07-24 02:04 pm SE 3.9 5.8 2.6 8--30.19- 64.4 61.3- 30.70--
2024-07-24 01:04 pmESE 3.9 5.8 3.0 6--30.19- 64.4 61.2- 30.80--
2024-07-24 12:04 pm SE 3.9 5.8 3.0 6--30.21- 63.9 61.7- 30.60--
2024-07-24 11:04 am SE 3.9 5.8 2.6 6--30.21- 64.8 62.1- 30.70--
2024-07-24 10:04 am E 1.9 3.9 2.6 6--30.20- 64.4 61.3- 30.80--
2024-07-24 09:04 amESE 3.9 3.9 2.6 8--30.20- 64.2 62.8- 30.60--
2024-07-24 08:04 am- 0.0 1.9 2.3 8--30.20- 65.3 64.4- 30.50--
2024-07-24 07:04 amESE 1.9 1.9 2.3 8--30.19- 63.9 64.0- 30.50--
2024-07-24 06:04 am NE 1.9 3.9 2.3 8--30.18- 64.0 62.1- 30.60--
2024-07-24 05:04 amSSE 3.9 5.8 2.3 8--30.17- 63.3 62.1- 30.60--
2024-07-24 04:04 amESE 1.9 3.9 2.3 6--30.16- 63.7 62.2- 30.70--
2024-07-24 03:04 amSSE 3.9 3.9 2.0 6--30.15- 63.5 62.2- 30.60--
2024-07-24 02:04 am SE 1.9 1.9 2.3 6--30.15- 63.0 61.5- 30.70--
2024-07-24 01:04 amSSW 1.9 1.9 2.0 6--30.15- 63.0 62.6- 30.60--
2024-07-24 12:04 am SW 3.9 3.9 2.0 6--30.15- 63.3 62.8- 30.70--
2024-07-23 11:04 pm S 3.9 5.8 2.0 8--30.14- 63.7 62.8- 30.60--
2024-07-23 10:04 pm S 3.9 5.8 1.6 8--30.14- 64.4 63.0- 30.50--
2024-07-23 09:04 pm S 3.9 3.9 1.6 8--30.13- 64.0 63.0- 30.60--

Disclaimer: Ocean current directions are reported to the nearest 10 degrees and speeds are measured to the nearest whole centimeter per second.

Ocean Current Data for 44030

Unit of Measure:   Time Zone:   
8:04 pm EDT 7:04 pm EDT 6:04 pm EDT
Depth
ft
Dir
°
Speed
kts
Dir
°
Speed
kts
Dir
°
Speed
kts
7 10 0.27270 0.19340 0.08
33 160 0.17140 0.29250 0.56
46 130 0.08150 0.25140 0.21
59 70 0.12110 0.14140 0.08
72 90 0.17140 0.23130 0.21
85 ---- 30 0.08

Previous (up to 48) reports of ocean current data for 44030

Ocean Current Stick Plots are available in metric units only:

All Instruments - 1-day plot - ocean current 1-day plot     3-day plot - ocean current 3-day plot     5-day plot - ocean current 5-day plot     


Ocean Conditions at 44030 as of
(8:04 pm EDT on 07/24/2024)
0004 GMT on 07/25/2024:

These oceanographic data are displayed in rounded times.

     

Click on the graph icon in the table below to see a time series plot of the last five days of that observation.

Depth (DEPTH): 3.3 ft
5-day plot - Ocean Temperature Ocean Temperature (OTMP):62.42 °F
5-day plot - Salinity Salinity (SAL):30.60 psu
Previous observations
TIME
(EDT)
DEPTH
ft
5-day plot - Ocean Temperature
OTMP
°F
5-day plot - Conductivity
COND
mS/cm
5-day plot - Salinity
SAL
psu
5-day plot - Oxygen Concentration
O2%
%
5-day plot - Oxygen Concentration
O2PPM
ppm
5-day plot - Chlorophyll
CLCON
ug/l
5-day plot - Turbidity
TURB
FTU
5-day plot - pH
PH
 
5-day plot - Eh
EH
mv
2024-07-24 07:04 pm 3.362.42-30.60------
2024-07-24 06:04 pm 3.362.60-30.70------
2024-07-24 05:04 pm 3.361.88-30.70------
2024-07-24 04:04 pm 3.361.52-30.70------
2024-07-24 03:04 pm 3.361.88-30.70------
2024-07-24 02:04 pm 3.361.34-30.70------
2024-07-24 01:04 pm 3.361.16-30.80------
2024-07-24 12:04 pm 3.361.70-30.60------
2024-07-24 11:04 am 3.362.06-30.70------
2024-07-24 10:04 am 3.361.34-30.80------
2024-07-24 09:04 am 3.362.78-30.60------
2024-07-24 08:04 am 3.364.40-30.50------
2024-07-24 07:04 am 3.364.04-30.50------
2024-07-24 06:04 am 3.362.06-30.60------
2024-07-24 05:04 am 3.362.06-30.60------
2024-07-24 04:04 am 3.362.24-30.70------
2024-07-24 03:04 am 3.362.24-30.60------
2024-07-24 02:04 am 3.361.52-30.70------
2024-07-24 01:04 am 3.362.60-30.60------
2024-07-24 12:04 am 3.362.78-30.70------
2024-07-23 11:04 pm 3.362.78-30.60------
2024-07-23 10:04 pm 3.362.96-30.50------
2024-07-23 09:04 pm 3.362.96-30.60------